Regional Weather Roundup
Issued by NWS

Home | Current Version | Previous Version | Text Only | Print | Product List | Glossary Off
Versions: 1 2 3 4 5 6 7 8 9 10 11 12 13 14 15 16 17 18 19 20 21 22 23 24 25 26 27 28 29 30 31 32 33 34 35 36 37 38 39 40 41 42 43 44 45 46 47 48 49 50

000
ASUS43 KDMX 032107
RWRIA

WEATHER ROUNDUP FOR IOWA
NATIONAL WEATHER SERVICE DES MOINES IA
400 PM CDT THU SEP 03 2015

NOTE: "FAIR" INDICATES FEW OR NO CLOUDS BELOW 12,000 FEET WITH NO
SIGNIFICANT WEATHER AND/OR OBSTRUCTIONS TO VISIBILITY.

* - THESE STATIONS ARE NOT NWS STATIONS...THUS NOT UNDER NWS
QUALITY CONTROL.  THEY ALSO DO NOT REPORT WEATHER SUCH
AS PRECIPITATION OR FOG.

IAZ001>003-012>014-020>022-031>034-043>046-032200-
   NORTHWEST IOWA

CITY           SKY/WX    TMP DP  RH WIND       PRES   REMARKS
CARROLL *      SUNNY     88  77  70 S10       29.84S HX 100
CHEROKEE *     SUNNY     88  73  62 S13       29.82F HX  96
DENISON *      SUNNY     86  73  66 S12G18    29.81F HX  93
LE MARS *      SUNNY     88  73  62 SE9       29.81F HX  96
ORANGE CITY *  SUNNY     88  73  62 SE10      29.82F HX  96
SHELDON *      SUNNY     86  73  66 SE12G18   29.82S HX  93
SIOUX CITY     SUNNY     88  70  55 S15       29.79F HX  93
SPENCER        MOSUNNY   87  72  60 SE13      29.83F HX  93
STORM LAKE *   SUNNY     86  73  66 S14       29.85S HX  93
$$

IAZ055>058-069>071-079>083-090>094-032200-
   SOUTHWEST IOWA

CITY           SKY/WX    TMP DP  RH WIND       PRES   REMARKS
ATLANTIC *     SUNNY     88  73  62 S12       29.84F HX  96
AUDUBON *      SUNNY     88  75  66 S8        29.86S HX  97
CLARINDA *     SUNNY     90  73  58 S12       29.87S HX  98
COUNCIL BLFS * SUNNY     90  73  58 SE13G18   29.83S HX  98
CRESTON *      SUNNY     88  72  58 S13G18    29.89F HX  94
LAMONI         SUNNY     90  71  53 S12       29.89F HX  96
RED OAK *      SUNNY     90  72  55 S13G21    29.84F HX  96
SHENANDOAH *   SUNNY     91  73  55 S14G22    29.84F HX 100
$$

IAZ047>049-059>061-072>074-084-032200-
   CENTRAL IOWA

CITY           SKY/WX    TMP DP  RH WIND       PRES   REMARKS
AMES           SUNNY     89  72  56 S12       29.86F HX  96
ANKENY *       SUNNY     90  73  58 S10       29.86F HX  98
CHARITON *     SUNNY     88  70  55 S13G20    29.89F HX  92
DES MOINES     MOSUNNY   91  70  49 S14       29.86F HX  96
GRINNELL*      SUNNY     90  72  55 S8        29.89F HX  96
KNOXVILLE *    SUNNY     88  72  58 S10       29.87F HX  94
MARSHALLTOWN   SUNNY     89  72  56 SW9       29.87F HX  96
PELLA *        SUNNY     91  75  59 SW10      29.89S HX 102
PERRY *          N/A     91  70  49 S13       29.85F HX  97
$$

IAZ004>006-015-016-023>025-035-036-032200-
   NORTH CENTRAL IOWA

CITY           SKY/WX    TMP DP  RH WIND       PRES   REMARKS
ALGONA *       MOSUNNY   86  73  66 S13       29.85S HX  93
CLARION *      SUNNY     88  73  62 S10       29.86F HX  96
ESTHERVILLE    SUNNY     86  73  65 SE14      29.84F HX  93
FORT DODGE *   SUNNY     90  72  55 S10       29.85F HX  96
MASON CITY     SUNNY     88  74  63 SE9       29.88F HX  96
FOREST CITY *  SUNNY     88  72  58 SE9       29.86F HX  94
IOWA FALLS *     N/A     90  72  55 S9        29.88F HX  96
$$

IAZ007>011-017>019-026>030-037>042-050>054-066-032200-
   NORTHEAST IOWA

CITY           SKY/WX    TMP DP  RH WIND       PRES   REMARKS
CEDAR RAPIDS   MOSUNNY   88  76  67 S7        29.88F HX  99
CHARLES CITY * SUNNY     88  75  66 S8        29.89S HX  97
CLINTON *      SUNNY     90  73  58 W6        29.91F HX  98
DECORAH *      SUNNY     86  73  66 VRB6      29.88F HX  93
DUBUQUE        MOSUNNY   88  73  61 SW9       29.91F HX  95
MONTICELLO *   SUNNY     90  75  62 S9        29.88F HX 100
OELWEIN *      SUNNY     88  73  62 S7        29.89F HX  96
WATERLOO       SUNNY     91  73  55 S12       29.86F HX  99
$$

IAZ064-065-067-068-078-032200-
   EAST CENTRAL IOWA

CITY           SKY/WX    TMP DP  RH WIND       PRES   REMARKS
DAVENPORT      SUNNY     90  70  51 SW10      29.90F HX  95
IOWA CITY      SUNNY     89  71  55 SW9       29.89F HX  95
MT. PLEASANT * SUNNY     95  59  30 SW8       29.90F HX  94
MUSCATINE *    SUNNY     93  66  40 S10G16    29.89S HX  96
QUAD CITIES    SUNNY     91  69  48 SW10      29.88F HX  96
$$

IAZ062-063-075>077-085>089-095>099-032200-
   SOUTHEAST IOWA

CITY           SKY/WX    TMP DP  RH WIND       PRES   REMARKS
BURLINGTON     MOSUNNY   92  69  47 SW8       29.90F HX  97
FAIRFIELD *    SUNNY     93  66  40 VRB7      29.90S HX  96
FORT MADISON * MOSUNNY   90  68  48 S7        29.91F HX  93
KEOKUK *       SUNNY     93  68  43 SW7G14    29.90S HX  97
OSKALOOSA *      N/A     91  70  49 SW9       29.89F HX  97
CENTERVILLE *  SUNNY     90  73  58 S8        29.92F HX  98
OTTUMWA        SUNNY     90  72  55 SW12      29.87F HX  97
WASHINGTON *     N/A    N/A N/A N/A MISG        N/A
$$

ABBREVIATIONS USED IN REMARKS
   TC - TEMPERATURES IN CELSIUS
  WCI - WIND CHILL INDEX
   HX - HEAT INDEX
  VSB - VISIBILITY
$$



USA.gov is the U.S. government's official web portal to all federal, state and local government web resources and services.